Change the Weather History Date:

Friday, October 5, 2012

  Actual Average Record
Temperature  
Mean Temperature 68 °F -  
Max Temperature 78 °F 67 °F 86 °F (2007)
Min Temperature 57 °F 42 °F 26 °F (1974)
Cooling Degree Days 2    
Growing Degree Days 18 (Base 50)    
Moisture  
Dew Point 58 °F    
Average Humidity 84    
Maximum Humidity 97    
Minimum Humidity 40    
Precipitation  
Precipitation 0.00 in - - ()
Sea Level Pressure  
Sea Level Pressure 29.99 in    
Wind  
Wind Speed 3 mph (West)    
Max Wind Speed 8 mph    
Max Gust Speed -    
Visibility 6 miles    
Events Fog    
Averages and records for this station are not official NWS values.
T = Trace of Precipitation, MM = Missing Value Source: NWS Daily Summary

Daily Weather History Graph

Daily Weather History Graph

Search for Another Location

Airport or City:

Trip Planner

Search our weather history database for the weather conditions in past years. The results will help you decide how hot, cold, wet, or windy it might be!

Date:

Astronomy

Oct. 05, 2012 Rise Set
Actual Time 6:45 AM EDT 6:18 PM EDT
Civil Twilight 6:17 AM EDT 6:45 PM EDT
Nautical Twilight 5:45 AM EDT 7:18 PM EDT
Astronomical Twilight 5:13 AM EDT 7:50 PM EDT
Moon 9:34 PM EDT (10/5) 11:55 AM EDT (10/5)
Length of Visible Light 12h 28m
Length of Day
11h 32m
Waning Gibbous, 74% of the Moon is Illuminated
Oct 5
Waning Gibbous
Oct 8
Last Quarter
Oct 15
New
Oct 21
First Quarter
Oct 29
Full

Hourly Weather History & Observations

Time (EDT) Temp. Dew Point Humidity Pressure Visibility Wind Dir Wind Speed Gust Speed Precip Events Conditions
12:07 AM 61.0 °F 59.0 °F 93% 30.03 in 2.0 mi NNW 3.5 mph - 0.00 in   Overcast
12:11 AM 61.0 °F 59.0 °F 93% 30.03 in 1.2 mi NW 4.6 mph - 0.00 in   Overcast
12:29 AM 61.0 °F 59.0 °F 93% 30.03 in 0.5 mi West 3.5 mph - 0.00 in Fog Fog
12:52 AM 61.0 °F 60.1 °F 97% 30.03 in 0.5 mi Calm Calm - 0.00 in Fog Fog
1:52 AM 61.0 °F 60.1 °F 97% 30.02 in 0.5 mi Calm Calm - N/A Fog Fog
2:52 AM 61.0 °F 60.1 °F 97% 30.01 in 0.8 mi Calm Calm - N/A   Mist
3:02 AM 61.0 °F 60.1 °F 97% 30.01 in 1.5 mi Calm Calm - N/A   Overcast
3:11 AM 62.1 °F 60.1 °F 93% 30.01 in 2.0 mi Calm Calm - N/A   Overcast
3:20 AM 62.1 °F 60.1 °F 93% 30.00 in 1.5 mi Calm Calm - N/A   Overcast
3:37 AM 62.1 °F 60.1 °F 93% 30.00 in 2.0 mi Calm Calm - N/A   Overcast
4:12 AM 62.1 °F 60.1 °F 93% 30.00 in 1.5 mi West 3.5 mph - N/A   Overcast
4:31 AM 62.1 °F 60.1 °F 93% 30.00 in 1.2 mi West 4.6 mph - N/A   Overcast
4:41 AM 62.1 °F 60.1 °F 93% 30.00 in 1.5 mi Variable 3.5 mph - N/A   Overcast
4:52 AM 62.1 °F 60.1 °F 93% 30.01 in 3.0 mi West 3.5 mph - N/A   Overcast
5:52 AM 62.1 °F 60.1 °F 93% 30.01 in 5.0 mi West 3.5 mph - N/A   Overcast
6:25 AM 61.0 °F 60.1 °F 97% 30.02 in 2.0 mi West 4.6 mph - N/A   Overcast
6:42 AM 61.0 °F 60.1 °F 97% 30.02 in 3.0 mi WSW 4.6 mph - N/A   Overcast
6:52 AM 61.0 °F 59.0 °F 93% 30.02 in 1.8 mi West 4.6 mph - N/A   Overcast
7:07 AM 60.1 °F 59.0 °F 96% 30.02 in 3.0 mi Calm Calm - N/A   Overcast
7:52 AM 60.1 °F 59.0 °F 96% 30.03 in 4.0 mi WSW 3.5 mph - N/A   Overcast
8:52 AM 62.1 °F 59.0 °F 90% 30.03 in 8.0 mi Calm Calm - N/A   Mostly Cloudy
9:06 AM 64.0 °F 59.0 °F 84% 30.03 in 10.0 mi SSW 3.5 mph - N/A   Partly Cloudy
9:52 AM 66.0 °F 57.9 °F 75% 30.02 in 10.0 mi WSW 4.6 mph - N/A   Clear
10:52 AM 70.0 °F 59.0 °F 68% 30.01 in 10.0 mi WSW 8.1 mph - N/A   Clear
11:52 AM 73.0 °F 59.0 °F 61% 29.99 in 10.0 mi NW 6.9 mph - N/A   Clear
12:52 PM 75.9 °F 57.0 °F 52% 29.98 in 10.0 mi NNW 8.1 mph - N/A   Partly Cloudy
1:52 PM 75.9 °F 54.0 °F 46% 29.96 in 10.0 mi West 8.1 mph - N/A   Clear
2:52 PM 78.1 °F 55.0 °F 45% 29.94 in 10.0 mi NW 3.5 mph - N/A   Clear
3:52 PM 78.1 °F 52.0 °F 40% 29.92 in 10.0 mi West 8.1 mph - N/A   Clear
4:52 PM 75.9 °F 53.1 °F 45% 29.93 in 10.0 mi West 4.6 mph - N/A   Clear
5:52 PM 68.0 °F 60.1 °F 76% 29.94 in 10.0 mi South 3.5 mph - N/A   Clear
6:52 PM 60.1 °F 57.9 °F 93% 29.94 in 10.0 mi Calm Calm - N/A   Clear
7:52 PM 57.9 °F 55.9 °F 93% 29.95 in 10.0 mi Calm Calm - N/A   Clear
8:52 PM 64.0 °F 59.0 °F 84% 29.95 in 10.0 mi SSW 4.6 mph - N/A   Clear
9:52 PM 64.0 °F 57.0 °F 78% 29.95 in 10.0 mi SSW 4.6 mph - N/A   Clear
10:52 PM 61.0 °F 55.9 °F 83% 29.94 in 10.0 mi Calm Calm - N/A   Clear
11:52 PM 57.9 °F 55.0 °F 90% 29.94 in 10.0 mi Calm Calm - N/A   Clear